This is the latest recevied weather packets stored in our database for station/object K8RRT. If no packets are shown the sender has not sent any weather packets the latest 1 day(s).
| Time | Temp. | Humidity | Pressure | Rain* | Wind** | Luminosity | Snow |
|---|---|---|---|---|---|---|---|
| 1778100432 | 13.89° C | 92% | 1007.9 hPa | 0 mm | - | 53 W/m² | - |
| 1778100129 | 13.89° C | 92% | 1007.9 hPa | 0 mm | - | 76 W/m² | - |
| 1778098615 | 13.89° C | 94% | 1008 hPa | 0 mm | - | 209 W/m² | - |
| 1778098311 | 13.89° C | 94% | 1007.8 hPa | 0 mm | - | 205 W/m² | - |
| 1778098008 | 13.89° C | 94% | 1008.1 hPa | 0 mm | - | 297 W/m² | - |
| 1778095583 | 12.22° C | 99% | 1007.8 hPa | 0 mm | - | 161 W/m² | - |
| 1778094976 | 12.22° C | 99% | 1007.7 hPa | 0 mm | - | 210 W/m² | - |
| 1778093157 | 12.22° C | 99% | 1007.8 hPa | 0 mm | - | 142 W/m² | - |
| 1778089822 | 12.22° C | 99% | 1007.3 hPa | 0 mm | - | 136 W/m² | - |
| 1778089521 | 12.22° C | 99% | 1007.4 hPa | 0 mm | - | 95 W/m² | - |
| 1778087702 | 11.67° C | 99% | 1007.8 hPa | 0 mm | - | 164 W/m² | - |
| 1778087095 | 12.22° C | 99% | 1007.4 hPa | 0 mm | - | 124 W/m² | - |
| 1778084362 | 12.22° C | 99% | 1007.4 hPa | 0 mm | - | 66 W/m² | - |
| 1778080824 | 12.22° C | 99% | 1006.6 hPa | 0 mm | - | 183 W/m² | - |
| 1778080218 | 12.22° C | 99% | 1006.5 hPa | 0 mm | - | 167 W/m² | - |
| 1778079308 | 12.78° C | 99% | 1006.2 hPa | 0 mm | - | 58 W/m² | - |
| 1778078400 | 16.11° C | 99% | 1005.4 hPa | 0 mm | - | 97 W/m² | - |
| 1778076587 | 15.56° C | 99% | 1005.2 hPa | 1.27 mm | - | 102 W/m² | - |
| 1778076283 | 15.56° C | 99% | 1005.4 hPa | 3.05 mm | - | 81 W/m² | - |
| 1778075677 | 15.56° C | 99% | 1005.6 hPa | 0 mm | - | 49 W/m² | - |
| 1778075373 | 15.56° C | 99% | 1005.3 hPa | 0 mm | - | 47 W/m² | - |
| 1778073555 | 15.56° C | 99% | 1004.3 hPa | 0 mm | - | 51 W/m² | - |
| 1778073251 | 15.56° C | 99% | 1004.3 hPa | 0 mm | - | 55 W/m² | - |
| 1778072041 | 15° C | 99% | 1004.3 hPa | 0 mm | - | 42 W/m² | - |
| 1778071435 | 15° C | 99% | 1004 hPa | 0 mm | - | 47 W/m² | - |
* Rain latest hour (hover to see other rain measurements)
** Current wind speed in m/s (hover to see current wind gust speed)